Wind_Speed
8 10 12 13 10 9 9 7 7 7 6 8 12 9 7 9 11 9 7 8 8 9 10 12 16 16 14 13 12 12 11 11 12 12 12 13 11 9 10 14 15 16 18 21 23 24 23 21 19 20 19 17 14 12 12 11 11 11 10 10 11 11 12 13 14 14 15 16 16 16 15 13 11 10 10 10 9 9 9 10 11 12 14 15 15 16
8 12 14 14 11 10 10 9 11 13 11 10 10 9 7 9 9 6 8 8 6 8 10 12 15 14 15 16 12 11 12 12 14 13 12 13 13 11 12 15 15 16 18 22 25 23 24 24 22 22 21 18 14 13 13 12 12 12 11 11 11 11 12 13 14 15 15 16 18 18 18 16 11 9 8 7 7 7 7 7 8 10 11 12 13 13
11 14 14 12 12 12 11 12 15 15 15 13 11 11 10 12 10 5 9 6 3 4 8 9 12 14 14 16 13 12 14 13 13 15 14 15 15 14 15 16 16 16 16 19 22 21 25 27 25 22 21 18 15 14 14 14 14 13 12 12 11 11 12 13 14 15 15 16 17 18 19 19 14 10 8 7 7 7 6 6 6 7 8 10 10 11
13 12 10 11 15 14 12 12 12 12 14 13 11 13 13 13 13 7 5 5 5 4 7 10 14 16 12 13 15 15 17 17 15 16 17 16 16 14 15 18 17 14 14 16 19 20 24 27 27 24 19 17 17 16 16 17 15 14 13 12 12 11 12 12 13 14 14 15 15 16 17 18 14 10 8 7 7 6 6 5 5 5 6 7 8 10
16 12 8 10 13 11 9 9 10 10 12 13 13 15 16 13 13 10 4 3 6 8 11 13 16 17 12 11 15 15 16 17 16 15 15 16 17 15 15 19 18 15 14 16 18 20 23 26 26 24 20 19 19 17 19 19 17 16 14 13 13 12 12 12 12 12 13 14 14 14 15 17 13 9 8 7 6 5 5 3 3 3 4 4 5 6
14 10 8 8 10 9 8 9 10 10 12 13 14 15 17 16 13 11 7 5 6 10 12 12 11 13 13 14 15 17 17 17 15 14 14 14 15 14 14 16 15 12 11 12 14 16 19 22 23 21 21 22 22 21 21 21 19 18 16 15 14 13 12 12 11 11 12 12 13 13 14 15 11 7 6 5 4 4 3 3 3 3 3 4 4 5
10 7 7 6 9 10 11 13 12 12 13 13 13 12 12 14 13 12 12 10 10 10 9 9 9 9 11 15 15 15 17 17 16 14 14 14 14 15 15 14 11 8 8 11 14 15 17 21 24 23 23 25 26 24 23 22 21 20 18 17 15 14 13 12 11 11 11 11 12 12 13 14 9 6 5 4 4 4 4 4 5 5 6 6 5 6
11 9 8 7 9 10 12 14 12 12 14 13 10 10 10 11 13 13 13 15 14 13 10 9 11 13 13 15 12 11 14 15 15 14 13 13 14 14 15 16 16 14 15 15 16 17 18 21 25 27 26 26 27 27 25 23 22 22 20 18 17 15 13 12 11 11 11 11 11 11 12 13 9 5 5 5 5 5 6 6 7 7 7 7 7 7
9 11 9 9 11 13 14 13 12 12 14 13 9 8 10 11 12 12 13 15 14 14 13 12 13 12 12 14 12 10 12 12 13 13 12 12 12 14 14 14 15 15 16 15 13 16 17 17 18 23 24 24 26 28 28 25 24 23 21 20 19 18 15 13 12 12 11 11 11 10 12 12 8 5 5 5 5 6 6 7 7 7 7 7 6 6
8 10 9 9 11 13 13 12 11 11 12 12 10 9 11 12 13 12 12 14 13 12 13 14 14 11 10 13 12 11 14 13 12 13 14 13 11 12 13 12 11 11 10 11 12 15 18 17 15 18 23 27 28 28 26 26 25 24 23 22 21 20 16 14 14 13 11 11 10 10 11 10 7 6 6 5 5 5 6 7 7 7 7 6 5 4
11 12 10 11 12 12 12 12 10 10 10 10 10 11 12 13 14 12 12 13 12 10 12 15 15 14 9 9 10 10 13 14 14 13 13 12 11 10 12 12 10 9 7 7 9 13 16 18 18 20 25 29 28 23 20 22 24 25 25 24 24 22 18 16 15 13 12 11 10 9 10 10 7 6 6 6 5 4 5 6 6 6 6 5 5 4
13 12 10 10 12 12 13 13 10 10 11 11 10 12 12 12 11 12 13 13 9 7 11 14 15 16 12 8 8 7 8 9 10 11 12 12 10 9 12 10 7 8 8 5 7 11 12 14 15 17 20 21 20 17 18 20 21 23 26 26 26 25 22 18 16 15 13 12 11 10 10 10 8 7 7 6 5 4 4 5 5 5 5 5 4 5
14 13 11 10 11 10 11 12 12 11 12 12 12 12 11 8 7 8 8 7 7 8 9 9 11 12 12 10 10 9 7 8 8 9 12 12 11 11 11 10 7 7 6 5 11 16 14 10 12 12 13 14 15 17 20 22 21 21 26 28 28 28 25 21 18 17 14 12 13 12 10 10 9 7 7 6 5 5 5 4 3 2 2 3 4 5
12 13 13 12 12 10 8 11 13 11 10 11 12 10 8 5 5 5 5 5 7 10 10 6 6 6 8 8 8 7 8 11 11 8 10 12 13 14 10 7 7 5 7 11 15 18 14 13 14 13 13 13 15 17 19 22 22 21 24 29 31 30 28 24 21 18 16 14 14 13 12 11 9 8 7 6 5 5 5 5 4 3 2 2 2 3
10 10 10 12 12 9 7 10 11 9 9 11 12 10 9 9 7 6 5 4 4 6 8 5 2 5 5 1 3 7 9 10 11 9 11 13 14 14 10 7 7 9 15 18 16 16 15 16 16 16 16 16 16 18 19 22 23 21 22 27 32 34 31 28 24 21 18 16 15 15 13 12 10 10 9 7 5 5 5 5 4 4 3 3 3 2
11 11 10 11 11 7 7 9 9 10 11 9 9 11 12 11 11 10 8 9 9 7 7 6 6 7 5 1 6 9 7 7 9 9 10 11 10 10 11 10 10 15 19 16 12 12 13 15 16 16 16 17 18 19 21 22 23 23 22 23 30 35 35 31 27 24 21 18 17 17 15 13 12 11 11 9 7 6 6 6 5 5 5 4 4 3
9 10 7 9 11 11 11 10 8 9 9 7 7 10 10 9 11 11 9 10 10 7 7 9 12 11 8 6 8 9 9 9 10 9 9 10 10 11 12 14 16 18 17 12 9 8 10 12 13 13 13 13 15 17 18 20 21 23 22 22 27 33 35 35 31 28 25 21 19 18 17 14 13 13 13 12 11 9 8 8 8 7 7 7 6 4
7 9 7 8 10 12 11 10 11 11 11 10 9 7 5 7 11 10 7 6 6 6 6 8 12 12 10 7 8 11 12 11 10 9 11 12 12 13 15 16 16 15 13 11 9 7 7 8 9 10 10 10 10 10 12 13 14 18 21 23 25 28 33 37 36 32 29 24 21 20 18 16 15 15 15 15 14 14 12 12 11 10 9 9 9 8
7 11 11 11 13 13 10 10 13 14 14 15 14 9 7 7 7 8 7 5 5 5 5 8 11 12 11 7 8 13 13 11 10 11 12 12 11 13 16 15 12 12 12 12 11 9 8 8 6 7 9 10 10 8 7 8 8 11 17 20 23 27 32 36 36 35 33 27 23 22 21 20 18 17 18 18 18 18 17 15 15 14 13 12 12 11
7 10 10 10 13 13 10 11 11 11 12 14 15 12 12 11 8 9 9 7 7 5 4 7 9 7 3 2 5 11 12 12 12 12 12 12 12 13 16 14 12 13 13 13 12 11 9 8 7 7 9 8 9 8 5 3 3 7 12 16 21 26 29 28 27 28 31 29 26 25 24 23 22 21 21 21 21 21 21 19 18 18 17 16 14 14
8 9 10 10 11 11 10 11 10 10 11 12 13 11 11 11 11 12 12 11 9 6 4 5 5 2 4 4 2 5 8 12 13 11 12 13 13 14 15 12 11 13 14 14 14 12 11 9 8 8 9 8 7 7 4 1 1 3 7 11 17 22 24 22 20 19 22 26 27 27 26 25 23 22 22 22 24 25 24 23 21 20 20 19 17 16
8 8 11 12 12 13 13 12 11 11 10 10 10 10 10 9 9 9 9 9 10 8 6 7 5 1 5 3 4 3 4 11 14 11 11 14 15 16 15 11 10 12 15 15 15 13 12 11 10 10 10 9 7 7 6 5 4 3 5 6 10 13 14 16 20 21 19 19 21 25 27 26 24 22 22 23 24 26 27 27 26 24 23 22 21 19
9 9 11 14 14 15 15 15 15 13 12 12 13 13 13 13 12 9 7 8 10 10 10 11 6 1 4 1 4 4 3 8 14 13 12 14 17 19 16 13 11 12 14 16 16 15 13 12 12 12 12 11 10 9 7 7 7 8 8 8 8 10 12 14 18 22 23 22 20 22 26 27 26 25 26 27 27 27 27 27 27 27 27 25 23 22
10 10 12 15 16 17 17 18 19 16 14 15 15 15 16 17 16 15 13 13 13 13 12 10 6 2 3 2 3 3 2 5 10 13 14 15 19 19 16 14 12 12 14 16 16 16 16 15 14 14 14 14 13 12 10 9 9 9 9 10 11 14 18 22 23 25 27 27 26 25 26 29 30 30 31 33 34 33 32 32 32 31 31 29 26 25
8 6 10 12 12 13 13 13 15 14 13 13 11 11 12 14 16 17 16 14 14 14 11 10 8 2 2 2 2 3 4 4 7 10 12 14 16 16 16 16 14 13 14 15 16 16 16 16 16 16 16 16 16 14 13 12 11 10 10 10 12 14 17 22 26 28 30 31 32 33 33 34 35 36 36 35 36 35 34 35 37 36 35 34 31 29
8 5 8 10 8 7 8 7 6 6 7 9 10 10 11 12 14 13 11 10 12 11 11 12 10 3 1 2 2 4 6 6 8 10 11 12 12 11 12 14 14 14 14 15 16 15 15 15 15 14 15 16 16 15 15 13 11 10 9 9 10 11 13 15 18 22 25 27 29 31 31 30 32 35 35 34 34 34 34 37 41 41 39 38 35 33
12 10 12 13 13 14 14 14 13 12 13 13 13 14 15 14 13 10 10 12 12 12 13 14 12 8 6 6 5 4 5 7 9 10 12 12 11 11 10 10 10 11 14 16 17 17 16 15 15 14 13 13 14 14 14 13 12 11 10 9 9 9 10 11 12 13 16 18 20 22 22 23 26 29 31 31 31 30 31 36 39 36 32 32 33 34
13 14 15 15 19 21 20 22 21 19 19 19 18 19 18 17 16 14 14 14 13 13 14 13 12 14 14 11 9 6 5 7 8 9 12 11 9 10 10 8 7 7 11 16 19 20 21 19 16 15 14 13 13 14 15 14 13 12 12 10 10 10 10 10 10 10 10 12 13 14 16 18 20 22 24 25 25 24 25 28 28 25 23 24 28 28
12 14 16 16 19 21 20 21 20 20 21 20 20 21 20 20 20 19 19 18 17 18 20 18 17 20 20 15 13 12 11 10 9 9 12 12 11 13 13 10 9 9 9 13 14 15 19 22 20 17 16 15 16 16 16 17 16 15 15 14 14 13 13 12 12 11 11 12 12 12 13 14 15 16 18 18 19 20 22 22 20 20 21 22 24 24
12 12 12 13 17 19 19 19 19 19 20 20 21 22 21 22 22 21 22 22 21 23 24 23 23 25 24 19 18 17 16 14 11 10 12 13 13 15 16 14 13 12 11 13 13 11 13 19 23 21 18 16 18 18 19 20 20 19 19 20 19 19 19 18 17 17 17 17 17 16 17 17 17 18 19 19 19 20 20 21 20 20 21 22 23 24
13 11 8 10 14 16 16 17 18 18 19 21 22 21 20 21 22 22 23 22 22 23 23 23 25 26 22 18 18 19 19 18 16 15 15 17 17 18 19 19 18 16 14 15 18 16 12 13 19 22 21 17 17 20 21 21 23 24 23 23 24 24 24 24 24 24 24 24 24 23 23 24 23 23 23 23 23 22 23 24 25 26 26 26 26 26
12 10 8 9 13 16 14 14 16 17 19 23 24 23 22 22 22 23 23 22 21 22 22 23 25 25 20 17 18 19 18 18 18 19 19 19 20 21 22 22 22 19 16 15 17 17 13 10 11 16 21 20 17 19 22 21 23 25 25 24 25 26 26 27 27 27 26 26 26 26 26 27 27 27 27 26 25 25 25 25 25 26 27 28 28 28
10 11 11 11 14 16 14 13 15 15 16 18 18 18 18 18 19 20 21 21 21 23 25 25 25 23 20 19 18 17 18 17 15 17 18 16 15 17 20 22 23 21 19 19 19 18 15 12 11 13 17 19 18 19 21 22 23 24 24 22 23 24 25 26 26 26 26 25 25 25 25 27 28 29 30 29 28 27 26 25 24 24 24 25 26 28
11 13 15 14 15 17 14 14 15 13 11 12 11 11 12 13 14 14 14 15 15 18 22 23 23 21 19 18 16 15 18 20 16 13 14 14 16 17 18 20 20 20 20 21 21 20 18 18 17 17 16 16 18 19 19 22 24 24 23 22 23 22 22 23 23 24 24 24 24 24 24 25 26 27 28 29 29 28 27 25 24 24 23 23 23 24
15 15 16 15 17 18 16 14 12 10 9 10 11 13 14 14 14 14 15 14 12 13 15 17 18 19 18 17 16 15 17 20 20 17 11 10 14 16 16 18 19 20 20 21 22 22 21 20 19 18 17 17 19 18 17 21 26 25 24 23 23 22 21 21 21 21 21 22 22 23 23 24 24 25 26 27 28 28 27 26 26 25 24 24 23 23
17 16 15 15 15 16 15 14 12 10 12 13 13 14 15 12 11 14 15 13 11 13 14 14 14 14 15 14 14 14 15 15 16 15 11 10 14 17 17 19 20 19 18 18 21 24 24 22 20 19 20 20 19 17 16 21 26 26 24 23 23 23 22 22 22 22 22 23 23 23 24 25 26 26 26 27 27 27 27 27 27 26 26 25 25 25
19 17 15 15 15 14 15 16 16 17 18 15 13 13 11 9 9 11 12 12 12 13 15 14 10 9 11 12 11 12 12 10 8 7 10 14 16 18 19 20 20 21 21 18 18 20 20 19 19 20 21 21 19 18 19 23 26 26 24 23 24 24 24 24 24 23 24 25 25 26 27 27 28 28 28 28 28 28 28 28 27 27 26 26 26 26
20 18 16 16 15 14 16 15 14 14 11 7 7 9 9 11 12 12 13 14 11 9 12 13 9 6 6 8 10 10 9 8 8 8 12 13 10 11 14 15 14 17 21 19 15 13 10 10 11 13 14 14 16 18 20 22 24 25 25 25 26 26 26 25 25 24 25 25 26 27 28 28 28 28 29 29 29 28 28 28 27 27 27 27 26 26
16 16 15 16 16 16 15 14 11 10 6 3 3 6 9 12 11 8 10 9 4 6 11 11 8 8 8 5 5 7 7 7 10 12 13 12 8 6 7 9 8 7 12 12 9 7 9 11 13 12 12 13 14 16 18 21 24 26 26 27 27 27 27 26 25 25 26 27 28 29 29 29 30 30 31 31 30 30 29 29 29 29 29 29 29 29
12 14 15 17 18 18 18 17 16 13 8 4 3 4 8 11 7 4 6 5 4 4 6 6 5 8 9 7 5 6 6 7 10 11 12 12 13 10 6 8 11 10 10 10 8 9 12 15 16 15 15 15 14 14 16 20 23 26 27 28 28 28 28 28 28 29 30 30 31 31 31 31 32 32 33 34 34 34 34 34 34 34 34 34 34 33
11 12 14 17 19 20 19 19 18 14 9 8 7 6 9 11 8 6 6 4 4 4 5 6 6 8 9 10 10 8 9 9 10 11 10 9 11 12 10 10 12 13 14 14 15 17 17 15 14 14 14 15 15 17 20 23 26 28 29 29 30 30 30 31 32 33 34 34 34 33 33 34 34 35 36 36 37 38 38 38 39 39 38 38 37 36
9 9 11 15 17 18 17 18 19 14 10 10 9 6 6 7 6 5 6 5 7 8 8 9 9 9 11 12 11 11 12 12 11 12 11 9 11 12 12 12 12 13 15 15 16 18 20 18 16 14 14 14 14 16 18 21 25 28 29 31 31 31 32 33 34 36 37 37 36 36 36 37 37 38 38 38 39 40 40 40 41 42 41 40 39 39
8 8 10 13 14 14 14 14 13 9 6 8 8 6 4 5 5 5 6 6 8 11 12 12 11 11 13 14 13 14 15 16 16 17 17 16 15 14 14 15 15 15 16 16 15 15 17 18 18 17 18 18 18 19 20 22 23 26 28 31 32 33 34 35 36 38 39 39 39 39 39 39 39 39 38 38 39 41 42 43 43 44 44 43 42 42
8 9 10 10 9 8 10 9 8 8 10 11 10 8 7 7 8 9 10 11 13 15 15 16 15 15 16 16 16 16 17 18 19 19 19 19 18 17 17 18 18 18 18 18 17 15 16 19 20 20 22 22 22 22 22 22 23 25 27 30 32 34 36 36 37 38 39 40 40 41 41 42 42 42 41 40 40 41 42 43 45 46 46 45 44 42
6 6 6 7 7 7 10 11 11 12 12 12 12 12 10 10 11 12 13 15 16 16 16 17 18 18 17 16 17 18 18 18 19 20 20 21 21 20 20 20 19 19 20 21 21 20 20 21 22 23 24 23 23 22 22 22 24 26 28 30 33 35 36 37 38 40 40 40 41 42 43 43 43 42 41 41 41 41 41 41 42 44 43 42 41 39
7 8 6 7 9 10 11 12 11 12 12 13 14 13 12 13 13 14 14 16 17 17 18 18 19 20 20 18 18 20 20 20 20 21 22 23 23 23 23 23 22 22 23 24 25 24 23 24 24 25 25 25 24 23 23 23 25 27 29 31 32 35 37 38 40 41 41 41 42 42 42 41 40 39 39 39 39 39 39 39 41 41 40 39 37 35
10 13 11 10 11 12 12 11 11 13 14 15 13 12 12 14 14 14 15 17 18 18 19 19 20 21 22 22 22 22 23 23 23 23 23 23 23 24 24 25 24 24 24 25 25 25 25 26 26 25 26 27 26 25 25 25 27 29 31 33 34 36 37 39 39 39 39 39 39 38 36 36 36 36 36 36 37 38 38 39 40 40 38 36 35 33
12 14 12 10 11 13 13 12 13 15 17 16 13 12 13 15 15 16 17 19 20 22 22 23 23 22 22 22 23 24 25 25 24 24 25 25 25 25 25 25 25 25 24 24 24 24 25 26 26 26 27 29 29 28 29 29 30 31 32 33 34 35 36 36 36 36 36 36 36 35 35 36 36 36 37 37 38 39 39 38 38 36 35 34 33 32
12 13 11 10 10 11 11 12 14 16 16 13 12 13 15 17 19 21 22 22 23 24 26 26 26 25 25 25 26 27 28 28 27 26 27 28 27 26 25 24 25 25 25 25 26 27 27 28 28 28 31 32 31 30 29 29 29 30 31 31 32 33 33 33 33 34 36 36 37 38 39 39 39 38 38 39 39 38 37 36 36 35 33 32 31 31
11 10 9 8 9 10 11 12 15 17 16 15 15 16 18 21 24 25 26 26 26 26 28 29 28 28 29 28 29 30 32 32 32 32 32 32 32 32 31 29 29 28 26 26 27 27 28 30 30 30 29 29 29 28 27 28 29 30 31 32 32 33 34 34 35 37 39 39 41 41 40 40 39 39 38 38 38 37 37 37 36 35 34 33 32 31
9 8 9 9 10 11 13 14 15 16 17 18 19 20 22 25 27 28 29 29 29 29 28 29 29 30 31 31 31 32 33 33 34 35 35 35 36 37 37 37 36 33 30 28 28 29 29 29 28 28 26 25 26 27 28 29 30 30 31 33 34 35 36 36 37 38 40 40 41 40 39 38 38 38 38 38 37 37 36 36 34 33 32 30 27 25
Wind_Direction
228 237 246 236 237 244 234 238 271 297 310 313 317 293 239 248 243 223 201 183 192 225 231 226 231 232 226 221 219 228 233 223 223 223 215 220 225 227 241 244 236 234 231 225 225 220 217 218 208 205 213 221 229 236 241 244 250 258 265 278 288 299 308 316 323 329 334 339 342 345 349 341 322 309 304 296 289 282 274 263 255 254 255 256 254 252
233 244 249 243 250 257 243 247 263 267 278 295 303 292 263 257 247 191 164 175 197 235 244 241 242 240 231 232 237 232 224 224 230 232 225 225 237 251 257 250 236 235 237 231 231 224 220 226 217 206 208 217 230 241 247 252 254 260 267 276 287 296 305 313 319 325 330 334 338 342 348 349 334 318 316 309 306 300 288 276 263 261 261 260 260 258
240 243 249 248 250 255 256 260 260 262 275 282 278 273 270 262 250 169 146 179 217 242 244 239 249 255 239 233 243 239 234 236 231 235 238 232 236 245 248 246 234 235 241 237 237 226 221 231 230 218 208 212 230 241 249 254 256 262 268 275 284 292 300 309 315 322 327 332 337 340 346 350 340 326 324 316 311 307 298 289 275 267 266 265 264 261
243 245 254 240 236 250 266 275 272 270 273 271 265 260 261 260 254 231 182 227 263 263 250 254 270 280 263 236 241 243 238 237 233 238 242 238 237 236 241 247 241 239 241 237 238 230 223 229 234 230 217 218 233 242 249 255 258 263 267 273 280 286 294 305 312 318 324 329 334 336 342 347 339 324 325 321 312 305 297 291 283 275 268 266 265 263
254 254 256 234 233 251 268 276 272 266 263 256 251 253 258 266 266 260 243 253 274 266 255 261 273 273 257 234 237 241 232 227 233 241 240 237 236 233 239 249 252 248 242 236 236 236 233 228 228 228 223 229 240 246 251 255 259 262 265 268 273 279 288 299 307 313 319 321 326 332 339 344 337 321 322 322 310 300 290 287 284 281 275 273 272 273
254 251 233 237 254 260 260 263 258 253 258 257 250 248 255 266 276 276 269 264 265 261 248 241 255 257 241 236 239 237 229 224 231 237 236 235 233 228 227 239 251 247 234 232 232 239 246 238 227 223 223 231 242 248 250 254 258 259 261 263 265 272 280 291 299 305 312 313 318 325 334 342 335 319 326 326 311 305 297 298 300 293 291 291 291 290
246 254 222 245 263 256 257 259 254 247 251 260 258 250 254 261 266 268 264 258 252 262 252 217 236 262 251 250 249 239 232 226 227 229 231 233 230 224 218 217 230 238 234 235 234 236 243 242 235 228 224 226 236 246 249 253 256 256 258 258 259 264 270 280 288 295 302 305 311 317 327 337 332 311 327 342 341 338 323 313 307 301 299 297 296 295
236 245 236 259 261 254 258 254 249 243 244 255 265 263 261 260 259 255 255 256 254 267 267 222 237 264 263 261 256 241 234 219 214 222 227 229 226 222 216 215 226 243 255 261 262 253 244 240 235 230 227 224 229 240 247 251 254 255 256 254 255 259 263 270 276 285 293 296 304 309 317 328 328 303 313 343 355 351 338 327 318 313 309 304 299 293
235 237 249 267 257 252 254 249 245 241 241 249 267 274 262 259 263 259 255 257 256 262 261 242 241 252 255 258 252 232 226 216 211 217 220 222 222 219 217 222 227 230 238 247 256 259 259 259 242 227 224 225 229 236 242 249 253 253 253 252 253 255 257 261 266 273 282 288 294 300 308 319 321 299 301 328 349 354 345 336 332 331 329 323 315 302
246 243 258 264 252 249 246 245 250 248 248 251 258 273 270 262 261 259 257 260 260 255 254 250 245 248 254 252 250 232 220 223 222 216 214 215 215 213 208 210 207 200 212 229 240 258 267 271 263 238 229 233 236 234 235 243 250 251 249 249 251 253 254 255 258 262 269 279 284 288 300 310 310 297 298 308 326 344 344 338 337 340 342 338 333 324
244 235 247 257 254 250 247 251 252 242 250 257 254 265 269 257 249 253 255 256 259 254 252 254 248 252 258 242 246 242 217 215 220 214 205 202 204 204 196 196 202 207 226 247 255 264 260 253 251 244 238 237 236 236 238 242 247 251 251 249 249 250 251 249 250 253 257 267 274 277 287 296 298 292 293 299 306 322 333 337 338 339 346 350 350 351
250 232 231 253 255 251 256 264 261 244 247 257 255 262 269 258 248 254 251 245 251 253 251 258 255 250 251 243 242 232 201 200 207 202 188 182 190 197 189 184 196 215 219 229 239 230 231 244 247 246 246 241 236 245 253 249 245 245 248 250 249 247 246 244 244 247 250 258 266 267 271 280 286 285 286 291 293 299 310 325 336 337 343 358 10 14
260 253 248 252 240 238 253 258 257 245 240 246 248 253 262 262 253 252 248 243 254 261 259 273 278 253 237 244 243 225 215 210 193 185 188 186 191 197 186 177 194 217 211 219 234 223 220 251 262 258 256 248 247 255 257 255 251 242 238 241 244 244 243 240 240 242 244 252 259 258 257 265 273 275 281 285 286 292 299 307 318 317 325 354 17 21
252 251 254 251 227 219 240 251 253 241 225 236 244 245 249 253 259 255 248 240 246 262 267 278 307 273 232 244 249 216 197 193 180 167 174 181 196 201 192 191 209 216 196 206 231 238 244 261 263 262 259 251 251 255 256 260 260 249 237 232 234 237 238 237 237 238 240 246 252 251 248 252 259 264 269 274 280 287 288 296 305 291 273 292 338 5
251 244 242 238 221 211 233 248 262 266 249 246 248 245 237 235 246 254 260 271 274 285 276 247 263 271 240 184 142 151 147 163 173 178 188 197 210 210 202 198 200 206 211 221 243 259 266 268 266 266 265 260 253 249 254 259 259 256 245 231 227 229 231 232 232 234 237 241 246 246 242 242 247 254 260 260 265 276 280 292 308 307 294 274 281 310
254 258 243 229 220 217 241 250 262 274 269 260 254 250 240 234 244 256 271 288 298 303 281 245 237 260 265 179 158 162 160 168 174 185 201 204 203 196 185 181 198 225 237 246 259 265 265 267 270 269 267 265 259 253 254 254 250 249 245 232 225 225 225 227 229 231 234 237 242 242 237 237 241 245 254 259 259 261 272 283 290 295 299 295 288 288
253 264 239 213 223 231 246 259 255 256 266 270 261 257 259 257 257 264 275 279 276 272 260 245 244 251 253 234 210 195 188 183 179 179 179 173 167 166 176 194 215 238 251 254 250 259 266 265 270 272 271 269 266 263 259 252 243 240 237 228 224 224 222 221 224 228 231 233 236 236 232 233 240 243 250 258 260 257 262 274 277 275 279 285 286 280
255 269 247 215 236 240 240 257 257 254 264 269 266 266 273 268 257 259 275 275 260 257 255 249 249 250 248 232 210 201 192 185 188 183 167 162 167 177 195 215 229 241 247 240 237 258 270 269 275 280 280 279 273 268 261 254 243 235 230 224 223 225 222 219 219 222 227 229 229 231 230 229 236 242 247 254 258 258 257 263 267 266 267 271 274 272
249 267 265 245 253 254 240 249 260 259 256 254 261 274 278 272 259 249 258 269 263 265 268 264 262 259 259 252 209 194 192 197 200 187 171 164 171 195 216 228 238 247 243 235 244 261 269 276 289 294 294 288 280 280 275 262 245 228 226 222 223 226 223 218 215 217 223 227 225 226 228 230 233 238 244 250 253 254 254 255 260 263 264 264 266 269
257 263 270 257 261 265 244 240 257 267 262 249 246 257 265 262 260 254 251 254 257 261 270 267 269 273 282 285 219 198 201 213 203 189 186 173 171 203 228 237 249 258 254 247 254 265 268 274 283 295 310 307 288 289 299 286 246 225 223 222 225 232 230 222 214 211 215 221 223 224 228 231 234 237 243 249 252 255 254 253 256 258 262 265 264 266
264 262 269 266 269 270 249 243 258 273 281 266 244 250 267 262 261 265 259 259 269 275 279 271 271 325 60 73 179 194 213 219 204 195 195 175 175 209 234 246 256 260 256 253 260 268 270 271 274 282 300 314 301 285 280 266 252 206 213 222 228 236 241 238 233 222 214 216 219 223 228 233 236 241 247 253 256 258 259 258 257 257 260 265 265 266
256 256 267 267 263 261 255 254 264 266 272 277 265 268 285 279 270 269 260 273 293 295 288 289 288 50 92 127 184 188 222 208 193 191 187 175 191 223 243 257 259 255 255 256 261 269 273 273 274 276 282 295 296 278 253 239 240 214 205 221 230 239 249 252 251 248 242 234 228 226 231 235 238 243 251 258 261 263 265 265 264 262 262 263 266 268
260 252 264 267 263 264 264 264 269 267 260 267 270 268 275 278 275 272 270 284 289 280 277 286 289 114 104 179 233 247 261 193 184 187 186 193 217 237 253 267 266 259 257 256 258 265 270 270 269 272 274 277 280 277 266 249 243 234 227 229 235 248 262 267 264 259 257 258 255 243 237 236 237 243 250 255 260 264 266 267 268 269 267 265 265 269
267 257 260 268 272 274 274 267 264 261 250 254 266 267 268 272 270 267 273 279 275 273 278 282 277 200 164 228 221 202 195 175 185 191 191 208 229 242 257 271 276 272 264 260 261 264 269 270 268 266 264 264 265 266 265 258 249 243 242 246 250 253 257 261 264 263 261 262 265 260 250 244 244 249 254 254 256 261 264 264 265 266 267 266 265 266
261 258 255 263 274 276 272 261 254 252 242 242 262 273 272 277 273 265 270 278 274 269 270 271 277 270 192 211 195 194 210 201 196 196 201 217 230 243 260 270 272 272 266 261 260 261 265 268 270 269 263 260 259 258 259 259 254 251 254 260 262 260 258 257 258 259 259 260 262 261 257 254 252 253 256 257 259 264 265 263 261 260 262 263 262 262
250 256 259 264 271 272 269 267 280 305 287 265 272 278 280 289 285 272 271 276 274 273 271 268 274 280 211 248 262 230 223 224 219 214 216 220 220 229 252 263 265 266 264 260 257 256 255 255 259 263 263 261 260 257 255 255 255 255 258 263 266 266 265 263 259 258 257 258 258 257 256 254 252 252 253 256 260 264 267 267 262 257 256 261 266 269
247 254 258 262 264 267 275 284 298 313 302 286 280 277 275 282 287 282 276 270 273 285 282 272 277 292 296 302 299 244 222 241 247 231 219 216 213 209 217 240 259 263 263 263 261 255 251 249 249 249 252 258 261 260 257 255 256 257 259 264 270 270 270 267 263 258 256 255 256 257 256 253 250 250 252 256 260 263 267 269 264 255 252 262 273 275
248 252 252 255 260 264 270 278 285 291 288 282 280 278 275 276 279 272 263 264 272 280 276 273 288 299 303 316 327 319 289 277 272 244 222 217 220 219 215 220 233 242 256 265 266 262 256 252 249 248 250 253 257 261 261 259 260 262 263 264 267 268 269 268 267 264 260 257 255 257 259 258 255 255 257 261 265 265 266 269 267 262 263 272 279 278
245 253 255 256 260 264 268 273 277 279 279 277 277 278 278 278 277 269 264 269 275 276 275 279 285 287 289 296 304 308 305 294 286 263 241 236 240 242 234 221 215 224 247 259 260 259 258 255 251 250 256 262 263 265 265 263 264 267 269 270 269 267 266 265 266 269 270 268 264 261 261 262 262 264 266 268 269 268 268 271 272 273 274 276 276 274
240 252 260 263 268 271 270 272 276 276 277 278 274 274 275 275 274 270 268 269 271 273 276 279 280 279 280 283 284 287 290 285 279 268 253 246 245 244 239 232 229 230 239 248 249 247 253 257 254 251 254 265 270 271 273 272 271 270 273 275 276 275 275 273 272 274 276 276 274 273 272 271 272 275 276 279 279 278 279 280 280 279 278 277 275 274
247 254 267 277 279 278 275 275 276 276 277 278 276 275 276 275 273 272 272 270 267 270 274 277 279 279 280 283 280 280 284 280 271 267 265 258 253 250 247 241 237 234 234 243 248 245 246 255 256 251 249 257 271 276 277 279 277 275 276 278 280 281 281 281 280 280 279 278 276 276 276 277 278 280 282 282 282 280 280 281 281 280 279 278 278 278
255 261 273 285 282 280 282 280 278 280 279 276 277 280 278 274 273 272 270 269 268 270 275 277 278 280 286 290 284 279 282 282 272 268 270 265 256 255 254 248 241 238 239 242 240 237 237 246 256 252 246 251 265 273 274 278 280 279 279 279 279 279 280 282 283 284 282 281 279 278 277 278 279 281 283 284 283 281 279 278 278 278 277 277 277 277
255 261 268 278 280 280 283 285 287 292 287 275 275 282 278 271 274 273 268 268 269 270 272 272 273 280 287 287 285 280 273 272 272 271 273 270 255 246 246 247 247 246 247 246 238 231 231 236 247 254 250 251 259 268 276 282 282 280 279 277 276 276 277 278 278 279 279 279 280 280 280 280 279 279 281 282 283 282 281 280 278 277 277 278 278 279
256 261 265 268 273 277 284 290 290 285 272 266 270 279 276 271 277 281 275 271 269 269 271 270 270 277 283 282 285 285 272 267 266 267 275 278 264 249 240 241 244 243 243 243 235 227 224 224 232 246 250 252 259 268 279 282 278 277 278 276 275 275 275 274 274 275 276 276 277 279 279 279 278 278 278 278 278 278 278 278 278 277 278 278 278 279
256 258 262 265 267 273 281 285 280 266 262 273 280 279 275 269 265 267 269 269 271 277 283 281 274 275 283 287 286 284 282 276 263 254 266 284 271 261 254 248 245 241 241 241 231 221 218 218 227 246 257 258 264 268 270 269 269 272 273 274 276 276 273 273 275 276 278 277 278 280 280 280 279 278 277 277 277 277 277 277 277 276 276 276 276 277
255 255 258 262 265 271 274 267 260 267 278 285 285 278 271 263 259 267 270 266 266 274 278 277 277 278 282 287 287 285 289 287 268 255 262 270 254 245 243 242 244 244 242 241 232 225 225 226 229 243 254 258 261 255 249 255 263 268 271 272 274 273 271 272 273 274 277 279 280 281 281 281 281 278 276 275 274 274 276 277 278 278 278 277 276 276
249 251 252 256 257 261 266 264 266 276 281 281 277 269 258 239 233 249 258 258 268 279 274 269 275 287 287 286 285 278 274 283 288 266 251 252 251 250 245 236 233 234 229 227 230 231 235 237 237 246 260 267 263 247 240 249 259 265 268 268 268 268 269 270 272 275 279 283 285 285 284 284 283 281 278 275 273 273 273 274 275 277 278 279 279 280
243 243 243 249 251 254 264 269 271 275 278 271 254 250 248 240 233 240 261 274 282 276 260 255 250 249 267 282 287 283 275 287 301 277 249 247 256 269 258 235 228 238 233 227 232 238 245 253 252 254 261 262 255 245 242 249 256 261 263 263 263 265 266 269 274 278 284 287 287 287 286 285 283 280 278 276 274 274 274 275 276 278 279 281 282 283
235 236 239 247 252 252 256 261 261 263 275 292 272 265 267 262 255 258 273 276 250 222 242 253 256 248 239 241 279 298 301 302 297 281 262 246 226 241 246 204 190 233 237 226 234 250 256 258 252 245 246 253 262 262 254 252 255 259 262 262 263 264 266 270 276 281 285 286 285 285 284 283 281 278 276 275 274 274 274 274 275 277 279 281 283 284
234 239 242 246 249 249 250 255 260 258 253 248 261 283 280 273 271 270 262 241 189 221 263 282 296 286 274 270 294 311 304 295 287 279 272 250 223 227 244 205 196 220 233 226 234 249 255 258 256 252 254 260 267 267 263 263 264 263 264 265 265 267 271 274 278 281 282 282 281 281 281 280 279 278 277 278 278 278 278 278 278 277 279 280 282 284
236 243 246 245 248 249 246 250 255 254 244 242 253 277 283 280 275 256 254 261 250 267 308 316 305 302 296 290 297 297 284 282 276 269 275 271 253 255 263 242 226 231 234 230 230 231 236 248 257 261 265 268 267 265 269 273 272 269 268 270 271 273 276 279 281 281 280 279 278 278 278 278 278 278 278 279 280 280 280 281 281 280 280 280 282 285
244 249 250 248 250 254 256 258 259 259 265 271 278 292 285 283 285 258 252 287 291 290 311 313 300 302 299 292 291 285 277 277 275 266 264 268 269 272 272 264 254 246 241 244 243 236 235 241 252 262 270 275 275 274 273 273 272 271 271 271 273 277 280 282 282 282 281 281 280 279 279 279 278 278 279 278 278 279 279 279 280 280 279 280 282 284
264 263 263 259 258 262 266 265 260 265 302 319 325 333 300 274 295 287 262 272 291 294 297 295 290 294 295 289 286 282 276 269 264 262 260 255 254 257 262 267 271 270 264 259 254 248 249 257 265 268 265 261 259 259 263 268 273 275 274 272 272 276 279 280 281 281 280 280 279 279 280 280 279 279 278 278 278 278 278 279 279 280 279 280 282 284
279 270 270 274 275 268 263 266 275 298 331 339 325 311 305 296 298 298 290 292 300 303 303 302 297 294 294 292 288 285 284 278 271 268 268 266 264 261 260 261 264 272 275 268 262 265 268 269 271 274 275 278 278 273 270 271 272 271 272 274 275 277 279 280 280 279 278 278 278 278 278 278 278 279 279 280 279 279 279 280 280 280 280 281 283 283
274 262 267 279 283 277 274 287 304 309 314 313 290 280 297 312 309 306 305 304 305 303 299 295 288 279 277 282 285 282 282 284 283 280 277 276 274 272 269 267 264 267 272 270 266 268 270 268 270 273 273 274 277 276 272 270 270 268 268 271 276 279 280 280 280 280 279 279 277 276 276 276 277 278 279 279 278 277 278 278 278 279 280 281 281 281
257 258 272 286 286 284 278 282 299 307 302 298 294 292 299 304 305 307 304 299 295 290 283 279 277 272 267 271 280 284 283 282 282 282 281 278 277 275 274 273 272 269 268 266 262 261 262 264 266 268 264 257 256 258 259 259 262 265 269 273 279 282 283 283 283 282 281 278 276 275 276 276 276 276 276 276 275 275 275 275 275 276 277 278 279 277
277 277 279 287 289 288 285 289 304 307 294 289 295 301 301 300 302 302 298 293 289 286 283 278 277 278 276 275 279 284 285 284 283 282 279 276 277 280 278 275 275 272 269 268 267 266 266 266 265 268 269 264 257 254 254 256 261 268 275 280 283 284 284 284 283 281 280 278 277 277 278 278 277 277 276 276 275 274 273 272 273 274 276 276 274 272
299 299 296 294 287 282 285 293 293 282 275 278 292 304 307 305 300 293 292 291 284 281 282 280 278 280 281 280 279 280 281 281 280 280 278 272 272 276 277 275 275 276 273 269 267 267 268 268 267 266 263 262 263 264 265 268 273 277 279 281 281 281 281 280 279 279 279 280 282 283 282 281 281 280 279 277 275 273 272 272 273 274 274 271 269 267
299 306 303 298 291 286 288 293 290 285 284 291 299 301 298 293 285 283 288 292 288 285 286 286 283 282 282 282 281 280 280 278 277 278 277 273 269 269 270 268 266 267 270 271 268 264 260 258 258 257 256 258 267 273 274 275 278 281 280 280 279 279 278 277 278 280 281 282 283 283 283 283 282 281 278 275 273 272 272 272 272 272 270 267 266 267
292 300 304 306 304 299 294 295 301 305 304 298 294 292 292 290 287 288 291 293 293 292 292 291 288 285 284 283 283 282 282 282 281 281 280 278 275 273 272 270 265 261 263 266 265 261 257 254 256 262 264 264 268 273 275 276 277 279 278 277 277 276 276 278 280 282 282 282 282 282 282 282 281 277 274 272 272 272 272 271 270 268 265 264 265 266
291 302 312 316 308 300 295 293 297 300 298 295 293 293 294 294 294 294 294 294 293 292 291 289 289 287 285 283 282 283 282 281 280 280 280 279 278 277 275 274 272 268 263 260 260 260 258 258 259 264 268 270 271 275 278 278 277 276 274 274 275 277 280 281 281 281 280 280 280 281 280 278 276 274 273 273 272 271 269 267 265 263 261 261 261 260
Height
3093 3093 3092 3091 3091 3090 3089 3089 3088 3088 3089 3089 3089 3087 3086 3087 3086 3086 3087 3089 3091 3091 3091 3091 3091 3091 3092 3093 3094 3096 3097 3098 3100 3101 3100 3097 3097 3100 3102 3102 3103 3105 3107 3108 3108 3109 3110 3111 3113 3114 3115 3116 3117 3117 3118 3118 3119 3120 3121 3121 3121 3121 3122 3121 3121 3121 3121 3121 3121 3120 3120 3119 3119 3118 3118 3118 3118 3118 3119 3119 3119 3120 3120 3120 3120 3121
3092 3092 3090 3089 3090 3088 3088 3088 3088 3089 3090 3090 3090 3089 3088 3087 3087 3086 3087 3089 3091 3091 3091 3091 3091 3091 3091 3093 3093 3094 3096 3097 3098 3100 3101 3100 3098 3099 3099 3101 3103 3104 3106 3106 3107 3108 3109 3110 3111 3112 3112 3114 3116 3116 3117 3118 3118 3119 3120 3120 3120 3120 3121 3121 3120 3120 3120 3120 3119 3119 3119 3118 3118 3118 3118 3118 3117 3118 3118 3118 3118 3118 3118 3118 3118 3119
3091 3090 3088 3088 3088 3087 3088 3088 3088 3089 3090 3090 3091 3090 3089 3088 3087 3086 3087 3090 3091 3091 3091 3091 3091 3090 3091 3092 3093 3094 3095 3096 3097 3099 3100 3101 3101 3100 3099 3098 3099 3101 3104 3105 3105 3107 3109 3109 3110 3110 3110 3112 3114 3115 3116 3117 3118 3118 3119 3119 3120 3120 3120 3120 3120 3119 3119 3119 3118 3118 3118 3118 3117 3117 3117 3117 3117 3117 3117 3117 3118 3118 3117 3117 3117 3117
3089 3088 3087 3087 3087 3087 3088 3089 3089 3089 3090 3090 3090 3090 3089 3088 3087 3086 3087 3090 3091 3091 3091 3091 3091 3089 3089 3091 3092 3093 3094 3095 3096 3097 3098 3099 3100 3101 3100 3097 3096 3098 3101 3103 3103 3105 3108 3108 3109 3109 3109 3111 3114 3115 3116 3116 3117 3117 3118 3119 3119 3119 3119 3119 3119 3119 3119 3118 3118 3118 3118 3118 3117 3117 3117 3117 3117 3117 3117 3117 3117 3117 3117 3117 3117 3117
3087 3087 3086 3086 3086 3087 3089 3089 3089 3090 3090 3090 3090 3089 3088 3087 3086 3087 3087 3088 3090 3091 3091 3091 3091 3089 3089 3090 3091 3092 3093 3093 3095 3096 3097 3098 3098 3100 3100 3096 3096 3098 3099 3101 3102 3103 3106 3108 3109 3109 3109 3112 3114 3114 3115 3116 3116 3117 3117 3118 3118 3119 3119 3119 3119 3119 3118 3118 3118 3118 3118 3118 3118 3117 3117 3117 3117 3117 3117 3117 3117 3117 3117 3117 3117 3117
3085 3085 3085 3086 3086 3087 3088 3088 3089 3090 3089 3089 3088 3088 3088 3087 3087 3087 3087 3088 3089 3089 3089 3091 3090 3088 3088 3089 3090 3091 3091 3092 3093 3094 3095 3096 3097 3100 3100 3096 3094 3096 3098 3099 3100 3101 3103 3105 3107 3108 3109 3111 3113 3114 3115 3115 3115 3115 3116 3117 3117 3118 3118 3118 3118 3118 3118 3118 3117 3117 3117 3118 3118 3117 3117 3117 3117 3117 3117 3117 3117 3117 3117 3117 3117 3116
3084 3084 3084 3086 3086 3087 3087 3088 3088 3089 3089 3087 3086 3086 3087 3087 3087 3088 3088 3088 3088 3087 3087 3089 3089 3087 3087 3087 3087 3088 3089 3090 3092 3093 3094 3095 3096 3097 3100 3099 3095 3094 3096 3098 3100 3101 3103 3104 3105 3107 3108 3110 3112 3113 3114 3114 3114 3114 3115 3115 3116 3117 3118 3118 3118 3118 3118 3118 3117 3117 3117 3117 3117 3117 3117 3117 3117 3117 3117 3117 3117 3117 3117 3117 3117 3116
3083 3083 3083 3085 3086 3086 3086 3086 3086 3087 3087 3086 3085 3086 3087 3087 3087 3087 3087 3087 3086 3087 3086 3088 3089 3087 3086 3086 3086 3086 3087 3088 3090 3092 3093 3094 3095 3096 3098 3099 3098 3096 3095 3096 3097 3100 3102 3104 3106 3107 3107 3108 3110 3111 3113 3113 3113 3113 3114 3114 3115 3116 3117 3117 3117 3117 3118 3118 3117 3117 3117 3117 3117 3117 3117 3117 3117 3117 3117 3117 3116 3116 3116 3116 3116 3116
3082 3083 3083 3084 3085 3085 3085 3085 3085 3085 3085 3085 3085 3086 3086 3086 3086 3086 3086 3085 3085 3086 3085 3086 3087 3086 3084 3084 3085 3085 3086 3087 3088 3090 3092 3093 3094 3095 3096 3098 3099 3098 3097 3096 3097 3097 3098 3100 3103 3104 3106 3107 3108 3109 3110 3112 3112 3111 3112 3113 3113 3114 3116 3116 3116 3117 3117 3117 3117 3116 3116 3116 3117 3117 3117 3117 3117 3117 3117 3116 3116 3116 3116 3116 3116 3115
3082 3082 3083 3084 3084 3083 3084 3083 3083 3084 3084 3084 3085 3085 3085 3085 3085 3085 3085 3084 3085 3084 3083 3084 3085 3083 3082 3083 3083 3084 3085 3086 3088 3089 3091 3092 3093 3094 3096 3097 3097 3097 3098 3098 3098 3097 3097 3098 3100 3101 3103 3105 3106 3107 3108 3110 3110 3110 3111 3111 3112 3113 3115 3115 3115 3116 3116 3117 3117 3116 3116 3116 3116 3117 3117 3117 3117 3117 3117 3116 3116 3116 3116 3116 3115 3115
3081 3081 3082 3082 3082 3082 3082 3082 3082 3083 3083 3084 3084 3084 3084 3083 3083 3084 3084 3084 3083 3082 3082 3083 3084 3083 3081 3081 3083 3083 3084 3085 3086 3088 3089 3091 3093 3093 3093 3095 3096 3097 3098 3098 3098 3097 3097 3098 3100 3100 3101 3103 3105 3105 3106 3107 3108 3108 3108 3110 3111 3112 3114 3114 3114 3115 3115 3116 3116 3116 3116 3115 3116 3117 3117 3117 3117 3117 3117 3117 3116 3116 3116 3116 3116 3115
3079 3079 3079 3080 3081 3081 3081 3081 3081 3082 3083 3083 3084 3083 3083 3081 3082 3083 3082 3083 3082 3080 3081 3081 3081 3081 3080 3080 3082 3082 3083 3084 3085 3087 3088 3089 3091 3091 3091 3094 3096 3096 3097 3099 3098 3095 3094 3096 3098 3099 3099 3100 3101 3101 3102 3104 3105 3106 3106 3108 3109 3110 3112 3113 3113 3114 3114 3115 3115 3115 3115 3115 3115 3116 3116 3117 3117 3117 3117 3116 3116 3116 3116 3116 3116 3116
3079 3078 3078 3079 3079 3080 3081 3080 3080 3080 3081 3082 3082 3083 3082 3081 3083 3083 3081 3082 3082 3080 3080 3080 3079 3079 3079 3080 3081 3081 3082 3084 3085 3086 3088 3089 3090 3089 3090 3093 3094 3095 3097 3097 3095 3092 3093 3095 3096 3097 3097 3096 3097 3099 3101 3102 3103 3104 3104 3105 3106 3107 3110 3112 3112 3112 3113 3114 3114 3114 3115 3115 3115 3115 3116 3116 3117 3116 3116 3116 3116 3117 3117 3117 3117 3117
3078 3077 3077 3078 3077 3078 3079 3079 3078 3078 3079 3080 3080 3081 3082 3082 3085 3085 3082 3082 3083 3080 3079 3081 3081 3078 3077 3079 3080 3080 3081 3083 3085 3086 3087 3088 3088 3088 3090 3092 3093 3094 3094 3092 3090 3091 3094 3095 3095 3096 3096 3096 3097 3098 3099 3099 3100 3101 3101 3102 3104 3105 3107 3110 3110 3111 3112 3112 3113 3113 3114 3114 3114 3115 3115 3116 3116 3116 3116 3116 3116 3117 3117 3117 3117 3117
3077 3076 3076 3077 3076 3077 3078 3078 3077 3077 3077 3078 3078 3080 3081 3081 3083 3084 3082 3081 3081 3079 3079 3081 3081 3078 3077 3078 3079 3079 3081 3082 3084 3085 3086 3086 3086 3087 3090 3092 3092 3090 3089 3088 3089 3091 3093 3094 3094 3095 3096 3096 3095 3095 3096 3097 3097 3098 3099 3100 3101 3102 3104 3107 3108 3109 3110 3111 3111 3112 3112 3113 3114 3114 3115 3115 3116 3116 3116 3116 3116 3116 3117 3117 3117 3117
3076 3075 3074 3075 3075 3076 3077 3078 3078 3078 3077 3077 3077 3078 3078 3079 3080 3080 3080 3079 3080 3080 3079 3079 3079 3078 3078 3079 3079 3080 3081 3082 3084 3084 3084 3086 3086 3087 3088 3089 3089 3087 3087 3090 3090 3091 3091 3092 3092 3093 3094 3094 3093 3093 3094 3094 3095 3095 3096 3097 3098 3098 3100 3103 3105 3106 3107 3108 3109 3110 3111 3112 3113 3114 3114 3115 3115 3116 3116 3116 3116 3116 3116 3117 3117 3117
3075 3074 3073 3074 3075 3076 3077 3077 3077 3077 3077 3077 3077 3076 3077 3078 3079 3078 3078 3078 3079 3080 3078 3077 3077 3077 3077 3078 3079 3080 3081 3082 3083 3083 3084 3085 3086 3086 3086 3087 3086 3086 3088 3090 3090 3090 3090 3090 3090 3091 3091 3092 3091 3091 3091 3091 3092 3092 3093 3094 3095 3094 3096 3099 3101 3103 3104 3105 3107 3108 3109 3110 3111 3112 3113 3114 3114 3115 3115 3115 3116 3116 3116 3116 3116 3117
3075 3074 3072 3074 3075 3075 3075 3076 3076 3077 3077 3076 3076 3076 3076 3077 3077 3078 3078 3077 3078 3078 3076 3075 3075 3075 3075 3076 3077 3079 3080 3081 3082 3083 3083 3084 3084 3084 3084 3085 3086 3087 3088 3088 3089 3089 3089 3089 3089 3089 3090 3090 3090 3089 3089 3089 3089 3090 3091 3092 3092 3092 3092 3093 3096 3098 3100 3102 3104 3106 3107 3108 3110 3111 3112 3112 3113 3113 3114 3115 3115 3115 3115 3115 3115 3116
3075 3074 3072 3073 3074 3073 3074 3075 3075 3075 3075 3075 3075 3075 3076 3076 3076 3077 3077 3077 3078 3077 3075 3074 3073 3073 3073 3074 3075 3077 3079 3081 3082 3083 3083 3083 3083 3082 3083 3084 3085 3086 3086 3087 3088 3088 3088 3088 3088 3088 3088 3088 3088 3088 3088 3087 3088 3088 3089 3090 3091 3089 3087 3087 3088 3092 3096 3099 3101 3103 3105 3107 3108 3109 3110 3110 3111 3111 3112 3113 3114 3114 3114 3114 3114 3114
3074 3073 3072 3072 3072 3072 3072 3073 3073 3074 3074 3073 3074 3074 3075 3075 3075 3075 3075 3075 3076 3075 3075 3074 3073 3072 3073 3074 3075 3077 3078 3080 3082 3082 3083 3083 3082 3081 3082 3083 3084 3084 3085 3085 3086 3087 3087 3087 3087 3087 3087 3087 3087 3086 3086 3086 3086 3087 3088 3089 3089 3087 3086 3087 3087 3089 3092 3095 3097 3100 3102 3104 3106 3107 3108 3109 3109 3110 3110 3111 3112 3113 3113 3113 3114 3114
3073 3073 3072 3072 3072 3071 3071 3072 3072 3073 3073 3072 3072 3073 3074 3074 3074 3074 3073 3073 3074 3073 3073 3073 3072 3072 3074 3074 3075 3077 3078 3079 3081 3082 3083 3082 3081 3080 3082 3082 3083 3083 3083 3084 3085 3085 3086 3086 3086 3086 3086 3086 3086 3086 3086 3085 3086 3086 3087 3088 3089 3088 3089 3091 3091 3090 3090 3091 3094 3098 3100 3102 3104 3105 3107 3108 3108 3109 3109 3110 3111 3112 3112 3112 3112 3113
3072 3072 3072 3072 3071 3070 3070 3071 3072 3072 3073 3073 3073 3073 3074 3074 3075 3074 3073 3072 3074 3074 3074 3074 3073 3073 3074 3075 3076 3077 3078 3078 3080 3083 3082 3080 3079 3080 3081 3082 3082 3082 3082 3083 3083 3084 3084 3085 3085 3085 3085 3085 3085 3085 3086 3086 3085 3086 3086 3087 3088 3089 3089 3090 3092 3092 3091 3091 3093 3096 3099 3101 3103 3104 3105 3106 3107 3107 3108 3109 3109 3110 3111 3111 3111 3111
3070 3071 3071 3071 3070 3070 3070 3070 3070 3071 3072 3073 3073 3073 3074 3074 3074 3073 3072 3073 3074 3075 3075 3075 3074 3073 3075 3075 3076 3076 3077 3077 3079 3081 3081 3078 3078 3079 3080 3081 3081 3081 3081 3082 3082 3082 3083 3083 3084 3084 3084 3084 3084 3085 3085 3085 3085 3085 3086 3086 3087 3088 3089 3090 3091 3091 3091 3092 3093 3096 3097 3099 3101 3102 3104 3105 3105 3105 3106 3107 3108 3108 3109 3109 3110 3110
3069 3071 3071 3070 3069 3068 3068 3068 3068 3069 3070 3071 3071 3072 3072 3072 3072 3072 3072 3072 3072 3072 3073 3073 3072 3073 3074 3075 3076 3076 3077 3078 3078 3080 3079 3077 3078 3079 3079 3079 3080 3080 3080 3080 3081 3081 3081 3082 3082 3083 3083 3083 3083 3084 3084 3084 3085 3085 3085 3086 3086 3087 3088 3089 3090 3090 3091 3092 3092 3094 3096 3098 3099 3101 3102 3102 3102 3103 3104 3104 3104 3105 3106 3107 3107 3107
3069 3070 3070 3069 3068 3066 3066 3065 3065 3066 3068 3069 3070 3071 3071 3071 3071 3070 3071 3071 3070 3070 3072 3072 3070 3071 3073 3074 3075 3076 3077 3078 3079 3080 3079 3077 3077 3078 3077 3078 3078 3078 3078 3079 3079 3080 3080 3080 3080 3081 3081 3082 3082 3083 3083 3083 3084 3084 3084 3085 3085 3086 3086 3087 3088 3088 3089 3090 3091 3092 3094 3095 3096 3097 3098 3099 3099 3100 3101 3101 3100 3101 3102 3103 3103 3104
3069 3069 3069 3068 3067 3066 3064 3063 3064 3066 3067 3068 3069 3069 3070 3070 3070 3069 3070 3071 3069 3069 3071 3071 3070 3071 3073 3073 3074 3075 3076 3077 3078 3079 3078 3077 3077 3077 3077 3076 3077 3077 3077 3077 3078 3078 3078 3078 3079 3079 3079 3080 3080 3081 3082 3082 3083 3083 3084 3084 3084 3085 3085 3086 3086 3086 3087 3088 3088 3089 3091 3092 3093 3094 3095 3096 3097 3097 3098 3097 3096 3097 3099 3099 3100 3101
3067 3067 3068 3068 3067 3065 3065 3064 3065 3067 3067 3067 3068 3068 3068 3069 3069 3069 3070 3070 3069 3070 3070 3070 3070 3071 3072 3073 3074 3074 3075 3076 3077 3077 3077 3077 3076 3076 3076 3076 3076 3076 3075 3076 3076 3077 3077 3077 3078 3078 3078 3079 3079 3079 3080 3081 3081 3082 3083 3083 3084 3084 3084 3085 3085 3086 3086 3086 3087 3087 3088 3089 3090 3091 3093 3093 3094 3094 3095 3094 3093 3095 3097 3097 3098 3098
3065 3065 3066 3067 3066 3065 3065 3064 3065 3066 3066 3066 3066 3066 3067 3067 3067 3068 3068 3068 3070 3069 3067 3068 3071 3070 3071 3072 3073 3073 3074 3075 3075 3075 3076 3075 3074 3075 3075 3076 3076 3076 3075 3074 3075 3075 3075 3076 3076 3077 3077 3078 3078 3078 3078 3079 3080 3081 3081 3082 3082 3083 3083 3083 3084 3084 3085 3085 3086 3086 3087 3088 3088 3089 3090 3091 3091 3091 3092 3091 3092 3093 3094 3095 3095 3095
3064 3064 3064 3065 3064 3063 3064 3064 3064 3065 3064 3064 3064 3064 3065 3065 3065 3066 3066 3067 3069 3068 3065 3067 3070 3069 3069 3071 3072 3072 3073 3074 3074 3074 3074 3074 3074 3075 3075 3075 3076 3076 3075 3074 3073 3073 3072 3073 3074 3075 3075 3076 3077 3077 3077 3078 3079 3079 3080 3080 3081 3081 3082 3082 3082 3083 3083 3084 3084 3085 3085 3085 3086 3087 3088 3088 3089 3089 3089 3089 3089 3090 3091 3092 3093 3093
3062 3062 3063 3063 3062 3061 3062 3062 3062 3063 3062 3062 3062 3062 3063 3063 3064 3064 3064 3065 3066 3065 3064 3066 3067 3067 3068 3070 3071 3071 3071 3071 3072 3073 3073 3073 3074 3074 3074 3073 3074 3075 3075 3074 3072 3071 3070 3069 3070 3072 3073 3073 3074 3075 3075 3075 3076 3077 3078 3078 3079 3079 3079 3080 3081 3081 3082 3082 3083 3083 3083 3083 3084 3084 3085 3085 3086 3086 3086 3085 3086 3087 3088 3089 3090 3090
3061 3061 3062 3062 3061 3059 3060 3060 3060 3061 3061 3060 3059 3060 3061 3061 3061 3062 3062 3063 3063 3063 3063 3064 3064 3064 3066 3067 3068 3069 3069 3069 3070 3071 3072 3072 3072 3072 3072 3072 3072 3072 3073 3073 3071 3070 3069 3067 3067 3068 3069 3070 3071 3072 3072 3073 3073 3074 3075 3076 3076 3076 3077 3077 3078 3079 3079 3080 3080 3081 3081 3081 3081 3082 3082 3082 3082 3083 3083 3083 3083 3083 3084 3085 3086 3086
3059 3060 3061 3061 3060 3058 3059 3059 3059 3059 3059 3057 3057 3057 3058 3058 3059 3059 3060 3061 3061 3061 3062 3062 3061 3061 3064 3065 3066 3066 3067 3067 3068 3069 3069 3069 3069 3069 3070 3069 3069 3069 3070 3070 3070 3068 3068 3066 3065 3064 3065 3067 3068 3068 3069 3070 3070 3070 3072 3073 3073 3073 3074 3074 3075 3075 3075 3076 3076 3077 3077 3078 3078 3079 3079 3079 3079 3079 3080 3080 3080 3080 3080 3081 3081 3082
3059 3059 3060 3060 3059 3057 3058 3058 3058 3058 3056 3055 3055 3056 3056 3056 3057 3057 3057 3059 3060 3060 3060 3059 3059 3061 3062 3063 3063 3063 3063 3063 3064 3064 3064 3064 3063 3064 3065 3066 3067 3067 3068 3067 3067 3066 3066 3066 3063 3061 3062 3064 3065 3064 3065 3066 3067 3067 3068 3069 3069 3070 3071 3071 3072 3072 3072 3073 3073 3073 3074 3074 3075 3075 3075 3076 3076 3076 3076 3076 3077 3077 3077 3077 3077 3077
3058 3058 3059 3059 3058 3056 3057 3058 3057 3056 3054 3052 3054 3055 3054 3054 3055 3054 3054 3055 3057 3057 3057 3056 3057 3059 3060 3059 3060 3060 3059 3059 3059 3059 3060 3061 3060 3060 3061 3062 3063 3064 3064 3063 3063 3063 3062 3062 3060 3058 3060 3062 3061 3062 3063 3063 3063 3063 3064 3065 3066 3067 3068 3068 3068 3069 3069 3070 3070 3070 3070 3070 3071 3071 3071 3072 3072 3072 3073 3073 3073 3074 3074 3074 3074 3074
3056 3056 3057 3057 3056 3055 3056 3057 3055 3052 3050 3051 3053 3053 3052 3052 3053 3052 3052 3053 3054 3054 3054 3054 3055 3056 3057 3057 3058 3057 3056 3056 3057 3057 3058 3059 3058 3057 3058 3059 3060 3060 3059 3058 3058 3058 3056 3056 3057 3056 3057 3058 3058 3060 3061 3060 3059 3060 3062 3062 3063 3064 3064 3065 3065 3065 3066 3066 3067 3067 3067 3067 3067 3067 3067 3067 3068 3068 3069 3069 3069 3070 3070 3070 3071 3071
3053 3054 3055 3055 3055 3054 3054 3054 3052 3048 3048 3051 3052 3051 3050 3050 3050 3050 3051 3052 3052 3052 3052 3052 3053 3054 3055 3055 3056 3055 3054 3053 3053 3055 3057 3056 3054 3053 3053 3055 3056 3056 3055 3054 3053 3053 3052 3053 3054 3054 3054 3055 3056 3057 3058 3057 3056 3057 3059 3060 3060 3061 3061 3062 3063 3063 3063 3063 3064 3064 3064 3064 3064 3064 3064 3064 3064 3064 3065 3065 3065 3065 3066 3066 3067 3067
3051 3052 3053 3053 3053 3053 3052 3051 3049 3047 3048 3049 3049 3048 3047 3047 3048 3049 3049 3050 3051 3052 3051 3050 3050 3051 3052 3053 3053 3052 3050 3050 3051 3053 3053 3052 3052 3051 3051 3051 3052 3051 3050 3050 3050 3050 3051 3051 3051 3051 3051 3052 3053 3053 3054 3054 3054 3055 3056 3057 3057 3058 3058 3059 3059 3060 3060 3060 3060 3060 3060 3060 3060 3060 3060 3061 3061 3061 3061 3061 3061 3062 3062 3062 3062 3062
3048 3049 3051 3051 3050 3051 3051 3049 3048 3047 3047 3046 3046 3045 3045 3045 3046 3047 3048 3049 3050 3049 3048 3047 3047 3048 3050 3050 3049 3048 3048 3049 3051 3051 3049 3050 3050 3049 3048 3049 3049 3048 3048 3049 3049 3049 3049 3049 3049 3049 3049 3049 3050 3050 3050 3051 3051 3052 3053 3054 3054 3055 3055 3056 3056 3056 3057 3057 3057 3056 3056 3056 3056 3056 3056 3056 3057 3057 3057 3057 3058 3058 3058 3058 3058 3058
3046 3047 3048 3049 3048 3050 3050 3049 3048 3047 3046 3045 3044 3044 3044 3044 3046 3047 3048 3049 3048 3046 3045 3046 3047 3047 3047 3047 3047 3047 3048 3049 3049 3048 3047 3048 3047 3046 3045 3047 3047 3047 3047 3047 3047 3047 3048 3047 3047 3046 3046 3046 3047 3047 3047 3047 3048 3049 3049 3050 3050 3051 3052 3052 3053 3053 3053 3053 3053 3053 3053 3053 3053 3052 3052 3052 3052 3053 3053 3053 3054 3054 3054 3054 3054 3054
3045 3045 3046 3046 3046 3047 3048 3047 3046 3046 3045 3044 3044 3043 3043 3043 3045 3046 3046 3046 3044 3043 3044 3045 3046 3046 3046 3046 3045 3046 3047 3047 3046 3045 3045 3045 3045 3044 3044 3044 3045 3044 3045 3045 3046 3046 3045 3044 3044 3043 3043 3044 3044 3044 3044 3044 3044 3045 3045 3046 3046 3047 3048 3048 3048 3049 3049 3049 3049 3049 3049 3049 3049 3048 3048 3048 3048 3048 3048 3049 3049 3049 3049 3049 3049 3049
3044 3044 3044 3044 3044 3045 3045 3045 3044 3044 3043 3042 3042 3042 3042 3042 3043 3044 3044 3043 3042 3042 3043 3044 3044 3044 3044 3044 3044 3044 3044 3044 3043 3042 3042 3043 3043 3043 3042 3042 3041 3041 3041 3042 3042 3042 3041 3041 3041 3041 3041 3041 3041 3041 3041 3041 3041 3041 3041 3042 3042 3043 3043 3043 3043 3044 3044 3045 3045 3045 3045 3045 3045 3045 3045 3045 3044 3044 3044 3044 3043 3043 3044 3044 3045 3045
3043 3043 3043 3043 3043 3043 3043 3043 3043 3042 3041 3040 3041 3041 3041 3042 3042 3042 3041 3042 3041 3041 3042 3042 3042 3042 3042 3041 3041 3041 3041 3040 3039 3039 3039 3040 3041 3040 3039 3039 3039 3038 3038 3039 3038 3038 3038 3038 3038 3038 3039 3039 3039 3039 3039 3038 3037 3037 3037 3038 3038 3038 3039 3039 3039 3039 3039 3039 3039 3039 3039 3040 3040 3040 3040 3040 3040 3039 3039 3039 3038 3038 3038 3039 3040 3039
3042 3042 3042 3042 3042 3042 3042 3042 3042 3041 3040 3040 3040 3040 3040 3040 3040 3039 3039 3040 3040 3039 3039 3039 3039 3040 3039 3038 3038 3037 3037 3036 3036 3036 3036 3036 3036 3036 3036 3036 3036 3036 3035 3035 3034 3035 3036 3036 3035 3035 3035 3035 3035 3035 3035 3035 3034 3033 3033 3033 3034 3034 3034 3034 3034 3034 3035 3034 3034 3034 3034 3034 3034 3034 3035 3035 3035 3034 3034 3033 3033 3032 3033 3034 3035 3034
3041 3041 3041 3041 3041 3041 3041 3041 3040 3040 3040 3040 3040 3039 3039 3038 3038 3038 3038 3038 3038 3038 3037 3037 3037 3037 3036 3035 3035 3034 3033 3033 3033 3032 3032 3032 3032 3032 3032 3032 3033 3033 3033 3032 3032 3032 3033 3033 3033 3032 3031 3031 3031 3031 3031 3031 3030 3030 3029 3029 3029 3030 3030 3030 3030 3030 3030 3030 3030 3029 3029 3028 3028 3029 3029 3029 3029 3029 3028 3028 3027 3027 3027 3028 3028 3028
3040 3039 3040 3040 3040 3040 3040 3040 3039 3040 3040 3039 3038 3037 3038 3038 3037 3037 3037 3036 3036 3036 3035 3034 3033 3033 3032 3032 3031 3030 3030 3030 3030 3029 3028 3028 3028 3028 3028 3028 3029 3029 3029 3029 3029 3029 3029 3029 3029 3029 3029 3028 3028 3028 3027 3027 3026 3025 3025 3024 3025 3025 3025 3025 3025 3025 3025 3025 3024 3024 3023 3023 3024 3024 3024 3024 3023 3023 3023 3023 3022 3021 3021 3022 3022 3022
3038 3038 3038 3039 3039 3039 3038 3038 3039 3039 3038 3037 3036 3036 3037 3036 3036 3036 3035 3034 3034 3032 3031 3030 3029 3028 3028 3028 3027 3026 3026 3026 3026 3025 3025 3024 3024 3023 3024 3024 3025 3025 3025 3024 3024 3025 3025 3025 3024 3024 3023 3023 3023 3023 3023 3022 3021 3021 3020 3020 3020 3019 3019 3019 3019 3018 3018 3018 3018 3018 3018 3018 3019 3019 3019 3018 3017 3017 3018 3017 3016 3016 3016 3017 3017 3018
3037 3036 3037 3037 3038 3037 3036 3037 3038 3037 3035 3034 3034 3034 3034 3034 3034 3033 3032 3031 3029 3028 3027 3026 3026 3025 3024 3024 3023 3022 3022 3022 3021 3021 3021 3020 3019 3019 3019 3019 3020 3020 3020 3020 3020 3020 3020 3020 3020 3019 3018 3018 3018 3017 3017 3016 3016 3016 3015 3015 3015 3014 3013 3013 3012 3011 3011 3011 3011 3012 3013 3013 3012 3012 3013 3012 3012 3012 3012 3011 3010 3011 3012 3012 3013 3013
3036 3035 3036 3036 3036 3035 3035 3035 3035 3032 3031 3031 3032 3032 3032 3031 3030 3029 3028 3027 3025 3024 3023 3023 3022 3021 3020 3020 3019 3018 3017 3017 3016 3016 3016 3015 3015 3014 3014 3014 3015 3015 3015 3016 3016 3016 3016 3016 3015 3014 3013 3012 3012 3012 3012 3011 3011 3011 3010 3010 3009 3008 3008 3007 3006 3005 3005 3005 3005 3006 3006 3006 3006 3007 3007 3006 3005 3005 3005 3006 3006 3007 3008 3008 3008 3009
3035 3034 3034 3034 3033 3033 3033 3033 3031 3029 3029 3031 3031 3030 3030 3028 3026 3025 3024 3023 3021 3020 3019 3018 3017 3017 3016 3015 3014 3013 3012 3011 3011 3010 3010 3009 3009 3009 3009 3009 3009 3010 3010 3011 3011 3010 3010 3009 3008 3007 3007 3007 3007 3007 3007 3006 3006 3006 3005 3005 3004 3003 3002 3002 3001 3001 3001 3001 3000 3000 3000 3000 3001 3001 3000 2999 2998 2999 3000 3000 3001 3002 3003 3003 3003 3004
3034 3033 3032 3032 3032 3032 3031 3030 3029 3028 3028 3028 3027 3026 3025 3024 3022 3021 3020 3018 3017 3016 3015 3013 3012 3012 3011 3010 3009 3008 3007 3006 3006 3005 3004 3003 3003 3003 3003 3003 3003 3004 3004 3005 3005 3004 3003 3003 3003 3002 3002 3003 3003 3003 3002 3002 3002 3002 3000 2999 2999 2998 2997 2997 2997 2997 2996 2995 2995 2994 2995 2995 2995 2994 2993 2993 2993 2994 2994 2995 2996 2996 2997 2998 2998 2999
3032 3031 3031 3031 3031 3030 3029 3029 3028 3026 3025 3024 3024 3023 3022 3020 3019 3017 3016 3015 3013 3012 3011 3009 3008 3007 3006 3005 3005 3004 3002 3001 3001 3000 2999 2998 2998 2997 2997 2997 2997 2997 2998 2998 2998 2998 2997 2998 2998 2998 2998 2998 2998 2998 2999 2998 2997 2997 2996 2995 2994 2993 2993 2993 2993 2992 2991 2990 2989 2989 2989 2989 2988 2987 2987 2987 2987 2987 2988 2989 2990 2991 2992 2993 2994 2995